SCP
0 0 0 0 0 0 1 1 1 1 1 1 1 1 1 1 1 1 1 1 1 1 1 1 1 1 1 0 0 0 0 0 0 0 0 0 0 1 1 1 1 0 0
0 0 0 0 0 0 0 0 1 1 1 1 1 1 1 1 1 1 1 0 0 0 0 0 0 0 0 0 0 0 0 0 0 0 0 0 0 0 1 1 0 0 0
0 0 0 0 0 0 0 0 0 0 0 0 0 0 0 0 0 0 0 0 0 0 0 0 0 0 0 0 0 0 0 0 0 0 0 0 0 0 0 0 0 0 0
0 0 0 0 0 0 0 0 0 0 0 0 0 0 0 0 0 0 0 0 0 0 0 0 0 0 0 0 0 0 0 0 0 0 0 0 0 0 0 0 0 0 0
0 0 0 0 0 0 0 0 0 0 0 0 0 0 0 0 0 0 0 0 0 0 0 0 0 0 0 0 0 0 0 0 0 0 0 0 0 0 0 0 0 0 0
0 0 0 0 0 0 0 0 0 0 0 0 0 0 0 0 0 0 0 0 0 0 0 0 0 0 0 0 0 0 0 0 0 0 0 0 0 0 0 0 0 0 0
0 0 0 0 0 0 0 0 0 0 0 0 0 0 0 0 0 0 0 0 0 0 0 0 0 0 0 0 0 0 0 0 0 0 0 0 0 0 0 0 0 0 0
0 0 0 0 0 0 0 0 0 0 0 0 0 0 0 0 0 0 0 0 0 0 0 0 0 0 0 0 0 0 0 0 0 0 0 0 0 0 0 0 0 0 0
0 0 0 0 0 0 0 0 0 0 0 0 0 0 0 0 0 0 0 0 0 0 0 0 0 0 0 0 0 0 0 0 0 0 0 0 0 0 0 0 1 0 0
0 0 0 0 0 0 0 0 0 0 0 0 0 0 0 0 0 0 0 0 0 0 0 0 0 0 0 0 0 0 0 0 0 0 0 0 0 0 0 0 1 1 1
0 0 0 0 0 0 0 0 0 0 0 0 0 0 0 0 0 0 0 0 0 0 0 0 0 0 0 0 0 0 0 0 0 0 0 0 0 0 0 0 0 1 1
0 0 0 0 0 0 0 0 0 0 0 0 0 0 0 0 0 0 0 0 0 0 0 0 0 0 0 0 0 0 0 0 0 0 0 0 0 0 0 0 0 0 1
0 0 0 0 0 0 0 0 0 0 0 0 0 0 0 0 0 0 0 0 0 0 0 0 0 0 0 0 0 0 0 0 0 0 0 0 0 0 0 0 0 0 0
0 0 0 0 0 0 0 0 0 0 0 0 0 0 0 0 0 0 0 0 0 0 0 0 0 0 0 0 0 0 0 0 0 0 0 0 0 0 0 0 0 0 0
0 0 0 0 0 0 0 0 0 0 0 0 0 0 0 0 0 0 0 0 0 0 0 0 0 0 0 0 0 0 0 0 0 0 0 0 0 0 0 0 0 0 0
0 0 0 0 0 0 0 0 0 0 0 0 0 0 0 0 0 0 0 0 0 0 0 0 0 0 0 0 0 0 0 0 0 0 0 0 0 0 0 0 0 0 0
0 0 0 0 0 0 0 0 0 0 0 0 0 0 0 0 0 0 0 0 0 0 0 0 0 0 0 0 0 0 0 0 0 0 0 0 0 0 0 0 0 0 0
0 0 0 0 0 0 0 0 0 0 0 0 0 0 0 0 0 0 0 0 0 0 0 0 0 0 0 0 0 0 0 0 0 0 0 0 0 0 0 0 0 0 0
0 0 0 0 0 0 0 0 0 0 0 0 0 0 0 0 0 0 0 0 0 0 0 0 0 0 0 0 0 0 0 0 0 0 0 0 0 0 0 0 0 0 0
0 0 0 0 0 0 0 0 0 0 0 0 0 0 0 0 0 0 0 0 0 0 0 0 0 0 0 0 0 0 0 0 0 0 0 0 0 0 0 0 0 0 0
0 0 0 0 0 0 0 0 0 0 0 0 0 0 0 0 0 0 0 0 0 0 0 0 0 0 0 0 0 0 0 0 0 0 0 0 0 0 0 0 0 0 0
0 0 0 0 0 0 0 0 0 0 0 0 0 0 0 0 0 0 0 0 0 0 0 0 0 0 0 0 0 0 0 0 0 0 0 0 0 0 0 0 0 0 0
0 0 0 0 0 0 0 0 0 0 0 0 0 0 0 0 0 0 0 0 0 0 0 0 0 0 0 0 0 0 0 0 0 0 0 0 0 0 0 0 0 0 0
0 0 0 0 0 0 0 0 0 0 0 0 0 0 0 0 0 0 0 0 0 0 0 0 0 0 0 0 0 0 0 0 0 0 0 0 0 0 0 0 0 0 0
0 0 0 0 0 0 0 0 0 0 0 0 0 0 0 0 0 0 0 0 0 0 0 0 0 0 0 0 0 0 0 0 0 0 0 0 0 0 0 0 0 0 0
0 0 0 0 0 0 0 0 0 0 0 0 0 0 0 0 0 0 0 0 0 0 0 0 0 0 0 0 0 0 0 0 0 0 0 0 0 0 0 0 0 0 0
Wind_Speed
8 6 6 6 7 6 5 4 5 5 4 4 5 4 4 4 3 1 2 3 4 4 4 5 4 4 3 4 4 4 5 5 5 6 6 6 8 9 8 8 7 9 11
8 6 5 5 6 5 3 2 4 4 4 4 4 4 4 4 3 2 1 2 3 3 4 4 4 4 3 4 4 4 3 4 4 4 4 4 5 7 10 8 8 9 8
8 6 5 4 3 2 1 2 2 2 4 5 5 5 5 5 4 4 2 1 2 3 3 3 3 4 3 4 4 3 4 3 4 4 4 3 4 3 6 10 8 8 6
6 5 4 3 1 0 0 1 1 2 3 4 5 7 7 6 6 4 4 5 4 4 3 3 3 3 3 4 4 3 2 3 4 4 4 4 1 1 1 4 6 7 6
5 3 2 1 1 2 2 1 1 2 3 4 6 6 7 6 6 7 8 7 6 5 4 3 2 2 2 3 4 4 3 2 4 4 4 4 4 4 2 3 3 4 4
3 2 1 1 2 3 4 3 3 4 4 5 6 6 7 7 8 9 9 8 5 4 4 3 2 2 2 2 3 3 4 3 5 5 4 3 3 3 3 3 4 5 4
1 1 2 3 3 4 4 4 3 4 5 5 6 6 7 8 9 9 7 7 6 5 5 5 2 3 3 3 3 3 3 4 4 4 4 4 5 4 4 3 4 4 4
1 3 3 3 4 5 5 5 5 4 5 5 6 6 8 7 6 7 8 8 7 7 7 6 5 4 4 5 4 3 4 3 3 4 4 4 5 5 5 3 2 2 3
5 6 6 7 7 7 6 6 5 5 5 6 7 7 6 6 7 7 8 8 7 8 8 8 7 7 6 5 5 4 5 4 4 4 4 4 4 5 6 4 3 2 3
8 9 9 9 8 7 6 6 5 5 6 7 6 8 7 7 7 8 8 8 8 8 8 8 8 8 7 7 6 6 6 6 5 4 4 4 3 4 5 5 4 3 2
9 9 8 8 8 8 8 7 7 6 6 6 6 6 6 7 8 7 8 7 8 8 8 8 9 9 8 8 7 8 7 7 6 6 5 5 5 4 4 4 4 4 3
9 9 9 9 9 9 10 9 9 8 7 7 6 7 7 7 8 10 8 8 8 8 9 9 9 10 10 8 8 9 9 8 8 7 7 6 5 6 4 4 5 4 4
9 9 8 9 9 9 9 10 10 10 10 9 8 8 9 9 9 9 9 9 9 9 9 9 10 10 10 10 9 9 9 9 8 8 8 8 7 6 5 5 4 4 4
8 9 9 8 8 9 8 9 10 10 11 10 10 9 9 9 9 9 9 9 9 9 10 10 10 10 10 11 10 10 10 9 9 8 8 8 8 7 7 6 6 5 4
9 10 10 9 9 9 9 9 10 10 10 11 11 10 9 9 9 9 10 10 10 12 10 10 10 10 10 11 11 10 11 9 9 9 9 9 10 11 8 6 6 6 5
10 11 11 10 10 10 10 9 10 9 9 10 11 11 10 10 10 10 10 10 10 11 10 11 12 12 12 12 11 9 9 8 8 9 9 9 10 12 12 11 9 8 7
10 11 11 10 9 9 8 9 9 10 10 10 11 11 11 12 11 12 12 12 11 11 11 11 12 12 12 14 14 13 9 9 8 8 8 10 11 12 10 10 11 10 9
10 10 10 11 11 10 9 9 11 11 11 11 12 11 12 12 12 12 12 11 10 10 10 11 12 11 12 14 13 14 11 10 9 8 8 9 8 9 10 10 9 9 9
8 9 10 11 11 10 10 10 11 12 12 12 12 12 12 13 13 13 12 11 10 10 10 11 10 10 10 12 12 12 8 8 9 9 9 10 10 10 12 10 9 8 7
8 9 10 10 10 10 10 11 12 12 12 13 13 13 13 13 14 13 12 10 9 10 10 10 9 9 9 8 10 11 7 7 8 7 8 11 11 11 12 9 8 8 7
9 9 9 9 8 9 9 11 12 12 12 13 13 13 13 13 13 11 9 9 9 10 9 10 8 8 7 6 8 10 6 6 6 6 6 6 11 12 13 10 6 6 6
9 10 8 8 8 9 9 11 12 12 12 13 14 14 13 13 12 11 10 9 9 9 8 7 7 5 4 4 6 9 8 5 4 3 3 3 9 12 13 9 6 6 5
9 9 9 9 9 8 8 11 11 12 13 13 14 14 15 13 12 10 10 8 7 6 6 6 6 5 2 1 4 7 7 6 3 1 1 1 7 10 9 9 8 7 4
8 9 10 11 10 9 9 10 10 11 12 13 14 13 13 13 11 8 7 7 6 6 6 6 5 4 3 1 1 3 4 5 4 3 2 4 7 7 6 8 7 5 5
7 8 9 10 11 10 10 10 10 11 12 13 13 13 12 11 10 9 7 7 4 3 4 6 6 5 3 2 2 1 1 1 2 2 3 3 4 5 5 6 7 7 6
7 8 9 11 11 11 10 9 9 10 11 12 12 10 10 10 9 9 8 5 5 4 4 5 5 4 2 1 1 2 2 2 2 1 3 4 5 6 7 7 7 7 7
Wind_Direction
113 109 103 100 95 86 77 62 47 36 4 16 347 339 341 332 313 313 53 14 343 340 321 319 323 310 297 294 286 270 269 259 247 241 248 242 225 214 213 212 214 216 220
128 129 135 122 105 98 90 86 51 28 3 6 319 303 322 306 294 347 38 12 349 337 327 335 320 314 309 296 286 276 267 267 244 227 227 236 229 216 213 205 210 215 215
142 142 133 121 120 113 94 61 51 5 1 344 321 335 324 309 322 330 318 350 327 310 307 306 311 313 308 306 300 273 261 267 274 243 222 222 226 212 202 202 204 203 206
140 148 156 149 145 174 140 95 55 15 357 337 332 329 314 314 317 317 320 321 304 284 277 275 289 307 308 310 312 316 278 258 268 275 251 252 269 254 229 204 200 195 199
152 158 169 170 309 327 346 2 43 21 354 338 319 315 313 317 315 318 310 304 290 269 253 243 244 275 293 311 314 317 306 282 271 271 279 267 252 232 225 214 201 194 193
176 172 234 281 308 316 316 331 28 16 357 335 323 315 315 313 309 300 292 290 285 281 280 266 234 258 274 295 298 301 302 288 277 275 271 271 258 241 238 219 200 192 196
196 240 276 296 307 310 324 343 5 359 343 329 321 319 315 307 293 288 297 308 312 310 308 311 295 278 269 264 264 273 277 278 279 277 282 282 277 269 255 235 219 194 180
329 306 311 331 339 340 355 355 354 339 330 319 311 307 296 294 301 317 323 310 298 294 296 300 286 273 266 269 262 262 263 259 266 272 275 282 287 288 282 265 246 213 182
347 343 354 354 352 355 358 351 343 335 327 317 306 291 291 312 314 309 298 296 299 301 306 315 305 289 271 258 255 255 257 255 249 257 266 262 270 283 288 291 276 217 201
355 0 356 350 353 350 349 345 340 331 323 314 310 316 324 311 299 301 299 295 291 289 289 285 284 282 274 258 241 245 247 242 237 236 245 256 261 267 279 286 291 281 236
356 351 347 352 351 344 340 342 336 328 321 317 316 313 306 305 303 296 292 293 295 295 292 288 284 280 275 266 251 244 242 243 240 236 231 234 245 257 265 278 281 276 264
352 347 347 349 344 339 337 333 330 324 320 319 314 308 306 304 301 301 300 298 293 290 290 286 283 279 276 267 259 249 246 238 235 231 225 223 226 236 243 256 269 268 264
352 346 348 345 340 339 333 329 325 322 321 318 314 313 309 306 302 300 297 294 291 288 287 285 281 278 276 271 265 256 248 243 238 231 223 218 215 223 227 231 246 263 263
352 349 346 340 340 332 329 325 321 320 317 318 315 309 304 302 300 298 295 293 290 287 282 279 277 275 274 270 265 260 250 241 238 235 228 219 212 211 213 222 225 230 243
348 345 340 335 331 329 326 321 319 318 317 314 310 306 303 301 299 297 296 293 290 289 286 284 280 275 271 264 257 254 255 244 236 233 229 225 214 208 203 207 212 215 217
342 337 333 331 328 325 322 321 318 318 317 311 308 306 304 302 299 299 297 294 292 290 286 283 279 274 272 272 272 261 261 257 246 240 234 232 220 210 202 200 196 198 206
335 335 334 328 323 321 323 320 320 319 316 312 308 307 306 305 303 305 304 299 297 293 287 283 279 273 269 266 262 258 252 253 246 239 238 240 227 199 194 197 196 199 204
339 337 328 323 322 326 325 324 322 319 316 312 310 311 309 307 307 305 300 298 297 294 290 285 281 275 271 261 250 247 245 246 241 233 230 233 243 218 191 189 196 201 200
342 330 323 321 323 325 329 326 320 318 315 314 315 315 313 310 307 304 302 300 297 295 290 287 281 276 271 259 247 235 241 240 239 232 229 224 230 223 194 189 193 195 197
333 325 323 323 325 329 329 322 318 317 317 319 318 315 312 309 305 301 299 298 296 293 294 292 287 282 276 260 242 223 231 235 237 230 230 226 224 213 192 191 191 194 194
329 329 330 327 327 326 325 319 317 319 321 319 315 313 311 308 301 299 301 300 297 296 297 296 292 285 277 259 235 215 227 232 235 230 221 223 208 200 196 196 196 197 185
332 335 330 327 325 327 325 318 318 323 321 318 315 314 312 309 308 306 302 301 298 298 299 301 300 291 277 257 230 210 220 247 252 242 232 217 192 188 188 192 180 170 175
333 331 328 324 324 329 328 318 321 324 322 319 316 314 312 307 305 303 303 303 301 301 305 309 311 309 303 254 217 211 216 225 244 314 335 210 180 182 187 194 176 171 189
329 329 327 325 325 328 328 322 323 325 322 319 317 313 310 309 310 308 305 305 308 311 315 317 319 322 323 323 236 200 201 202 207 225 217 166 171 190 189 178 184 199 212
324 326 325 323 324 327 325 325 328 327 322 319 316 314 310 310 311 310 307 304 308 304 300 314 319 324 333 12 8 331 234 197 175 192 186 184 175 196 201 194 190 198 209
324 325 326 325 326 326 326 329 331 329 323 317 316 314 311 312 313 313 312 292 277 258 246 259 285 310 1 52 24 44 49 44 36 196 200 210 204 204 205 204 198 198 203